contact:dominique.lefevre@mio.osupytheas.fr, maurice.libes@osupytheas.fr, didier.mallarino@osupytheas.fr
Project:EMSO http://www.emso-fr.org/EMSO-France
Depth: 2436.0 m
Title:EMSO Ligure Ouest : Data MII capteur AQUADOPP
Date,Latitude,Longitude,X_East,Y_North,Z_Up,Amplitude_X,Amplitude_Y,Amplitude_Z,Batterie,SoundSpeed,Heading,Pitch,Roll,Pressure,TIS,Speed,Direction
, degrees North, degrees East, m.s-1, m.s-1,m.s-1, 1, 1, 1, Volt, m.s-1, degree, degree, degree, dbar, degree_C, m.s-1, degree
2023-03-08T00:04:03,42.805,6.029,0.031,-0.005,-0.006,107.0,106.0,104.0,13.4,1505.2,340.2,-0.8,1.8,2471.276,13.28,0.031,99.2
2023-03-08T00:07:03,42.805,6.029,0.034,-0.006,-0.007,106.0,106.0,104.0,13.4,1505.2,326.3,-0.8,1.8,2471.266,13.28,0.034,100.0
2023-03-08T00:10:03,42.805,6.029,0.021,-0.017,0.0,106.0,106.0,105.0,13.4,1505.2,337.6,-0.7,1.8,2471.255,13.29,0.027,129.0
2023-03-08T00:13:03,42.805,6.029,0.051,-0.023,0.007,106.0,105.0,105.0,13.3,1505.2,337.6,-0.7,1.8,2471.245,13.29,0.055,114.3
2023-03-08T00:16:03,42.805,6.029,0.009,0.008,-0.018,105.0,105.0,105.0,13.4,1505.2,325.0,-0.8,1.8,2471.234,13.29,0.012,48.4
2023-03-08T00:19:03,42.805,6.029,0.014,-0.013,-0.022,106.0,106.0,104.0,13.4,1505.2,330.2,-0.8,1.8,2471.188,13.29,0.019,132.9
2023-03-08T00:22:03,42.805,6.029,0.016,-0.007,0.008,105.0,104.0,105.0,13.3,1505.2,333.4,-0.8,1.8,2471.191,13.29,0.017,113.6
2023-03-08T00:25:03,42.805,6.029,0.031,-0.029,-0.036,105.0,106.0,104.0,13.4,1505.2,326.0,-0.8,1.8,2471.205,13.29,0.042,133.1
2023-03-08T00:28:03,42.805,6.029,0.04,-0.015,-0.016,107.0,106.0,105.0,13.3,1505.2,325.2,-0.8,1.8,2471.196,13.29,0.042,110.6
2023-03-08T00:31:03,42.805,6.029,0.031,-0.014,-0.028,107.0,107.0,105.0,13.4,1505.2,332.1,-0.7,1.8,2471.218,13.29,0.034,114.3
2023-03-08T00:34:03,42.805,6.029,0.022,-0.017,-0.023,108.0,105.0,104.0,13.4,1505.2,323.8,-0.7,1.8,2471.208,13.29,0.027,127.7
2023-03-08T00:37:03,42.805,6.029,0.035,-0.018,-0.038,107.0,106.0,105.0,13.3,1505.2,324.6,-0.8,1.8,2471.215,13.29,0.039,117.2
2023-03-08T00:40:03,42.805,6.029,0.028,-0.033,-0.016,106.0,107.0,105.0,13.3,1505.2,341.5,-0.8,1.8,2471.197,13.29,0.043,139.7
2023-03-08T00:43:03,42.805,6.029,0.033,-0.027,-0.013,108.0,107.0,105.0,13.4,1505.2,326.5,-0.8,1.8,2471.201,13.29,0.042,129.3
2023-03-08T00:46:03,42.805,6.029,0.049,-0.019,-0.011,108.0,106.0,104.0,13.3,1505.2,319.3,-0.7,1.8,2471.18,13.29,0.052,111.2
2023-03-08T00:49:03,42.805,6.029,0.04,-0.014,-0.007,108.0,106.0,105.0,13.3,1505.2,323.6,-0.7,1.8,2471.215,13.29,0.042,109.3
2023-03-08T00:52:03,42.805,6.029,0.034,-0.036,-0.005,107.0,106.0,105.0,13.4,1505.2,330.7,-0.7,1.8,2471.192,13.29,0.049,136.6
2023-03-08T00:55:03,42.805,6.029,0.014,-0.037,-0.011,108.0,108.0,105.0,13.3,1505.2,332.9,-0.7,1.8,2471.181,13.29,0.039,159.3
2023-03-08T00:58:03,42.805,6.029,0.063,-0.03,-0.04,107.0,107.0,104.0,13.4,1505.2,322.2,-0.7,1.8,2471.181,13.29,0.069,115.5
2023-03-08T01:04:03,42.805,6.029,0.035,-0.038,0.0,109.0,108.0,106.0,13.3,1505.2,329.1,-0.7,1.8,2471.232,13.28,0.051,137.4
2023-03-08T01:07:03,42.805,6.029,0.025,-0.041,-0.029,109.0,107.0,106.0,13.4,1505.2,329.3,-0.7,1.8,2471.24,13.28,0.048,148.6
2023-03-08T01:10:03,42.805,6.029,0.03,-0.038,-0.008,107.0,107.0,104.0,13.4,1505.2,331.1,-0.8,1.8,2471.241,13.28,0.048,141.7
2023-03-08T01:13:03,42.805,6.029,0.011,-0.023,0.02,107.0,108.0,105.0,13.3,1505.2,323.1,-0.8,1.9,2471.192,13.29,0.025,154.4
2023-03-08T01:16:03,42.805,6.029,0.022,-0.004,-0.018,107.0,107.0,105.0,13.4,1505.2,322.0,-0.7,1.8,2471.213,13.29,0.022,100.3
2023-03-08T01:19:03,42.805,6.029,0.006,-0.022,-0.002,110.0,107.0,105.0,13.4,1505.2,324.5,-0.8,1.8,2471.202,13.29,0.022,164.7
2023-03-08T01:22:03,42.805,6.029,0.016,-0.041,-0.026,108.0,106.0,105.0,13.3,1505.2,331.6,-0.8,1.8,2471.198,13.29,0.044,158.7
2023-03-08T01:25:03,42.805,6.029,0.036,-0.032,-0.002,107.0,107.0,105.0,13.4,1505.2,322.2,-0.8,1.8,2471.207,13.29,0.048,131.6
2023-03-08T01:28:03,42.805,6.029,0.054,-0.019,0.006,106.0,106.0,104.0,13.4,1505.2,322.7,-0.8,1.9,2471.203,13.29,0.057,109.4
2023-03-08T01:31:03,42.805,6.029,0.029,-0.023,-0.004,107.0,106.0,105.0,13.4,1505.2,325.3,-0.7,1.8,2471.156,13.29,0.037,128.4
2023-03-08T01:34:03,42.805,6.029,0.009,-0.04,-0.02,109.0,107.0,105.0,13.4,1505.2,338.3,-0.8,1.8,2471.206,13.29,0.041,167.3
2023-03-08T01:37:03,42.805,6.029,0.026,-0.035,-0.016,107.0,106.0,105.0,13.4,1505.2,339.6,-0.8,1.8,2471.151,13.29,0.043,143.4
2023-03-08T01:40:03,42.805,6.029,0.027,-0.029,-0.039,107.0,107.0,104.0,13.4,1505.2,318.3,-0.8,1.8,2471.207,13.29,0.039,137.0
2023-03-08T01:43:03,42.805,6.029,0.02,-0.035,-0.008,107.0,106.0,104.0,13.4,1505.2,327.2,-0.8,1.8,2471.189,13.29,0.04,150.3
2023-03-08T01:46:03,42.805,6.029,0.017,-0.034,-0.009,106.0,105.0,104.0,13.4,1505.2,325.8,-0.7,1.9,2471.196,13.29,0.038,153.4
2023-03-08T01:49:03,42.805,6.029,0.024,0.0,0.0,107.0,107.0,105.0,13.4,1505.2,321.4,-0.7,1.8,2471.192,13.29,0.024,90.0
2023-03-08T01:52:03,42.805,6.029,0.024,-0.039,-0.005,107.0,106.0,104.0,13.3,1505.2,326.7,-0.8,1.8,2471.207,13.29,0.045,148.4
2023-03-08T01:55:03,42.805,6.029,0.019,-0.029,-0.02,105.0,106.0,104.0,13.3,1505.2,317.4,-0.7,1.8,2471.198,13.29,0.034,146.8
2023-03-08T01:58:03,42.805,6.029,0.031,-0.04,-0.015,106.0,106.0,103.0,13.4,1505.2,324.4,-0.7,1.9,2471.175,13.29,0.05,142.2
2023-03-08T02:04:03,42.805,6.029,0.024,-0.032,0.0,107.0,106.0,105.0,13.4,1505.2,316.1,-0.8,1.8,2471.226,13.28,0.04,143.1
2023-03-08T02:07:03,42.805,6.029,0.036,-0.031,-0.016,106.0,106.0,105.0,13.4,1505.2,330.2,-0.8,1.8,2471.198,13.28,0.047,130.7
2023-03-08T02:10:03,42.805,6.029,0.025,-0.033,-0.006,106.0,106.0,103.0,13.4,1505.2,322.2,-0.8,1.8,2471.207,13.28,0.041,142.8
2023-03-08T02:13:03,42.805,6.029,0.035,-0.009,-0.018,107.0,105.0,105.0,13.3,1505.2,319.9,-0.8,1.8,2471.239,13.29,0.036,104.4
2023-03-08T02:16:03,42.805,6.029,0.023,-0.04,0.007,106.0,107.0,105.0,13.4,1505.2,332.5,-0.8,1.8,2471.217,13.29,0.046,150.1
2023-03-08T02:19:03,42.805,6.029,0.03,-0.026,0.022,108.0,107.0,105.0,13.4,1505.2,324.5,-0.7,1.8,2471.246,13.29,0.039,130.9
2023-03-08T02:22:03,42.805,6.029,0.02,-0.031,-0.02,107.0,108.0,103.0,13.4,1505.2,335.9,-0.8,1.8,2471.181,13.29,0.036,147.2
2023-03-08T02:25:03,42.805,6.029,-0.004,-0.01,-0.026,107.0,105.0,104.0,13.3,1505.2,335.6,-0.8,1.8,2471.199,13.29,0.01,201.8
2023-03-08T02:28:03,42.805,6.029,0.041,-0.035,-0.011,108.0,106.0,105.0,13.4,1505.2,321.6,-0.8,1.8,2471.189,13.29,0.053,130.5
2023-03-08T02:31:03,42.805,6.029,0.025,-0.031,-0.025,107.0,106.0,104.0,13.4,1505.2,327.9,-0.8,1.8,2471.237,13.29,0.039,141.1
2023-03-08T02:34:03,42.805,6.029,0.052,-0.016,0.017,109.0,107.0,105.0,13.4,1505.2,333.4,-0.8,1.8,2471.217,13.29,0.054,107.1
2023-03-08T02:37:03,42.805,6.029,0.027,-0.017,0.002,107.0,107.0,105.0,13.3,1505.2,317.2,-0.8,1.8,2471.175,13.29,0.031,122.2
2023-03-08T02:40:03,42.805,6.029,0.026,-0.021,-0.002,106.0,107.0,106.0,13.4,1505.2,319.9,-0.8,1.8,2471.189,13.29,0.033,128.9
2023-03-08T02:43:03,42.805,6.029,0.016,-0.036,-0.007,106.0,106.0,105.0,13.4,1505.2,335.9,-0.8,1.8,2471.227,13.29,0.039,156.0
2023-03-08T02:46:03,42.805,6.029,0.037,-0.034,-0.054,106.0,107.0,105.0,13.3,1505.2,322.9,-0.7,1.8,2471.19,13.29,0.05,132.6
2023-03-08T02:49:03,42.805,6.029,0.037,-0.043,-0.008,108.0,106.0,105.0,13.4,1505.2,328.8,-0.7,1.8,2471.199,13.29,0.056,139.3
2023-03-08T02:52:03,42.805,6.029,0.03,-0.026,-0.023,107.0,107.0,105.0,13.4,1505.2,340.6,-0.8,1.8,2471.204,13.29,0.039,130.9
2023-03-08T02:55:03,42.805,6.029,0.036,-0.033,0.007,107.0,107.0,105.0,13.4,1505.2,336.8,-0.7,1.8,2471.223,13.29,0.048,132.5
2023-03-08T02:58:03,42.805,6.029,0.032,-0.039,-0.018,107.0,106.0,106.0,13.4,1505.2,319.7,-0.7,1.8,2471.182,13.29,0.05,140.6
2023-03-08T03:04:03,42.805,6.029,0.046,-0.039,-0.015,108.0,107.0,105.0,13.4,1505.2,341.5,-0.7,1.8,2471.245,13.28,0.06,130.3
2023-03-08T03:07:03,42.805,6.029,0.029,-0.01,-0.013,108.0,106.0,104.0,13.4,1505.2,318.5,-0.8,1.8,2471.217,13.28,0.03,109.0
2023-03-08T03:10:03,42.805,6.029,0.031,-0.038,-0.009,109.0,106.0,105.0,13.4,1505.2,332.1,-0.8,1.8,2471.203,13.28,0.049,140.8
2023-03-08T03:13:03,42.805,6.029,0.005,-0.032,-0.02,106.0,107.0,105.0,13.3,1505.2,332.1,-0.8,1.8,2471.234,13.29,0.032,171.1
2023-03-08T03:16:03,42.805,6.029,0.03,-0.056,-0.018,107.0,106.0,105.0,13.4,1505.2,334.2,-0.8,1.8,2471.207,13.29,0.063,151.8
2023-03-08T03:19:03,42.805,6.029,0.031,-0.04,-0.028,106.0,106.0,105.0,13.3,1505.2,338.7,-0.8,1.8,2471.22,13.29,0.05,142.2
2023-03-08T03:22:03,42.805,6.029,0.023,-0.008,0.0,108.0,107.0,105.0,13.4,1505.2,317.2,-0.8,1.8,2471.24,13.29,0.024,109.2
2023-03-08T03:25:03,42.805,6.029,0.055,-0.035,0.02,107.0,106.0,104.0,13.4,1505.2,323.2,-0.8,1.8,2471.246,13.29,0.065,122.5
2023-03-08T03:28:03,42.805,6.029,0.018,-0.04,-0.009,106.0,107.0,105.0,13.4,1505.2,334.2,-0.7,1.8,2471.224,13.29,0.043,155.8
2023-03-08T03:31:03,42.805,6.029,0.034,-0.035,-0.012,106.0,105.0,105.0,13.4,1505.2,326.0,-0.8,1.8,2471.202,13.29,0.048,135.8
2023-03-08T03:34:03,42.805,6.029,0.026,-0.033,-0.034,107.0,106.0,104.0,13.4,1505.2,340.2,-0.8,1.8,2471.203,13.29,0.042,141.8
2023-03-08T03:37:03,42.805,6.029,0.021,-0.03,-0.037,107.0,106.0,105.0,13.4,1505.2,322.9,-0.7,1.8,2471.207,13.29,0.036,145.0
2023-03-08T03:40:03,42.805,6.029,0.046,-0.043,-0.008,106.0,105.0,105.0,13.4,1505.2,319.4,-0.8,1.8,2471.225,13.29,0.062,133.1
2023-03-08T03:43:03,42.805,6.029,0.007,-0.037,-0.015,107.0,106.0,105.0,13.4,1505.2,329.7,-0.8,1.8,2471.227,13.29,0.037,169.3
2023-03-08T03:46:03,42.805,6.029,0.021,-0.042,-0.009,107.0,106.0,104.0,13.3,1505.2,329.9,-0.8,1.8,2471.227,13.29,0.046,153.4
2023-03-08T03:49:03,42.805,6.029,0.018,-0.028,0.007,106.0,106.0,105.0,13.4,1505.2,338.5,-0.8,1.8,2471.209,13.29,0.033,147.3
2023-03-08T03:52:03,42.805,6.029,0.044,-0.031,-0.009,107.0,106.0,105.0,13.4,1505.2,317.2,-0.8,1.8,2471.254,13.29,0.053,125.2
2023-03-08T03:55:03,42.805,6.029,0.044,-0.025,0.011,107.0,106.0,105.0,13.4,1505.2,316.2,-0.7,1.8,2471.222,13.29,0.05,119.6
2023-03-08T03:58:03,42.805,6.029,0.015,-0.02,-0.034,107.0,106.0,106.0,13.3,1505.2,318.5,-0.7,1.8,2471.235,13.29,0.025,143.1
2023-03-08T04:04:03,42.805,6.029,0.019,-0.042,-0.008,107.0,106.0,106.0,13.4,1505.2,329.7,-0.8,1.8,2471.312,13.28,0.046,155.7
2023-03-08T04:07:03,42.805,6.029,0.041,-0.066,0.003,108.0,106.0,105.0,13.4,1505.2,337.0,-0.8,1.8,2471.268,13.28,0.077,148.1
2023-03-08T04:10:03,42.805,6.029,0.025,-0.04,-0.031,108.0,107.0,104.0,13.4,1505.2,326.3,-0.8,1.8,2471.24,13.28,0.047,148.0
2023-03-08T04:13:03,42.805,6.029,0.029,-0.053,-0.022,108.0,105.0,105.0,13.4,1505.2,332.1,-0.8,1.8,2471.273,13.29,0.06,151.3
2023-03-08T04:16:03,42.805,6.029,0.022,-0.048,-0.017,106.0,106.0,105.0,13.4,1505.2,334.7,-0.8,1.8,2471.272,13.29,0.052,155.4
2023-03-08T04:19:03,42.805,6.029,0.012,-0.05,-0.022,107.0,106.0,103.0,13.4,1505.2,327.8,-0.8,1.8,2471.267,13.29,0.051,166.5
2023-03-08T04:22:03,42.805,6.029,0.034,-0.051,0.0,105.0,106.0,105.0,13.4,1505.2,332.2,-0.8,1.8,2471.295,13.29,0.061,146.3
2023-03-08T04:25:03,42.805,6.029,0.05,-0.032,-0.031,108.0,106.0,104.0,13.3,1505.2,318.9,-0.8,1.8,2471.284,13.29,0.059,122.6
2023-03-08T04:28:03,42.805,6.029,0.006,-0.018,0.015,106.0,106.0,105.0,13.4,1505.2,331.2,-0.8,1.8,2471.266,13.29,0.018,161.6
2023-03-08T04:31:03,42.805,6.029,0.026,-0.039,-0.03,108.0,106.0,106.0,13.4,1505.2,321.7,-0.7,1.8,2471.302,13.29,0.046,146.3
2023-03-08T04:34:03,42.805,6.029,0.026,-0.038,0.018,106.0,106.0,104.0,13.3,1505.2,335.4,-0.8,1.8,2471.289,13.29,0.046,145.6
2023-03-08T04:37:03,42.805,6.029,0.033,-0.066,-0.023,107.0,106.0,105.0,13.3,1505.2,336.0,-0.7,1.8,2471.277,13.29,0.073,153.4
2023-03-08T04:40:03,42.805,6.029,0.019,-0.048,-0.013,106.0,106.0,105.0,13.4,1505.2,323.3,-0.8,1.8,2471.288,13.29,0.051,158.4
2023-03-08T04:43:03,42.805,6.029,0.035,-0.036,-0.011,107.0,106.0,105.0,13.4,1505.2,316.1,-0.7,1.8,2471.29,13.29,0.05,135.8
2023-03-08T04:46:03,42.805,6.029,0.017,-0.063,-0.009,107.0,107.0,105.0,13.3,1505.2,333.8,-0.8,1.9,2471.27,13.29,0.065,164.9
2023-03-08T04:49:03,42.805,6.029,0.044,-0.037,-0.019,107.0,107.0,104.0,13.3,1505.2,322.9,-0.8,1.8,2471.304,13.29,0.057,130.1
2023-03-08T04:52:03,42.805,6.029,0.003,-0.032,0.0,107.0,107.0,106.0,13.4,1505.2,339.9,-0.8,1.8,2471.292,13.29,0.032,174.6
2023-03-08T04:55:03,42.805,6.029,0.016,-0.026,-0.022,107.0,105.0,105.0,13.4,1505.2,316.7,-0.8,1.8,2471.285,13.29,0.03,148.4
2023-03-08T04:58:03,42.805,6.029,0.011,-0.061,-0.018,108.0,106.0,105.0,13.4,1505.2,334.6,-0.8,1.8,2471.289,13.29,0.061,169.8
2023-03-08T05:04:03,42.805,6.029,0.052,-0.02,-0.031,107.0,106.0,104.0,13.4,1505.2,317.9,-0.7,1.8,2471.33,13.28,0.055,111.0
2023-03-08T05:07:03,42.805,6.029,0.041,-0.046,-0.023,107.0,106.0,105.0,13.4,1505.2,330.9,-0.7,1.8,2471.348,13.28,0.061,138.3
2023-03-08T05:10:03,42.805,6.029,0.035,-0.032,-0.02,106.0,107.0,104.0,13.3,1505.2,322.2,-0.7,1.8,2471.321,13.28,0.047,132.4
2023-03-08T05:13:03,42.805,6.029,0.009,-0.037,-0.04,107.0,104.0,105.0,13.3,1505.2,339.9,-0.7,1.8,2471.309,13.29,0.038,166.3
2023-03-08T05:16:03,42.805,6.029,0.021,-0.034,-0.014,109.0,106.0,106.0,13.4,1505.2,320.3,-0.8,1.8,2471.37,13.29,0.039,148.3
2023-03-08T05:19:03,42.805,6.029,0.033,-0.049,0.001,108.0,107.0,106.0,13.3,1505.2,334.8,-0.8,1.8,2471.358,13.29,0.059,146.0
2023-03-08T05:22:03,42.805,6.029,0.027,-0.039,-0.008,109.0,107.0,104.0,13.4,1505.2,317.8,-0.8,1.8,2471.326,13.29,0.047,145.3
2023-03-08T05:25:03,42.805,6.029,0.018,-0.046,-0.018,108.0,106.0,105.0,13.3,1505.2,330.2,-0.8,1.8,2471.35,13.29,0.049,158.6
2023-03-08T05:28:03,42.805,6.029,0.017,-0.041,0.001,106.0,106.0,105.0,13.3,1505.2,321.6,-0.8,1.8,2471.323,13.29,0.044,157.5
2023-03-08T05:31:03,42.805,6.029,0.016,-0.038,-0.005,106.0,107.0,105.0,13.3,1505.2,341.2,-0.8,1.8,2471.363,13.29,0.041,157.2
2023-03-08T05:34:03,42.805,6.029,0.043,-0.036,-0.027,107.0,108.0,104.0,13.4,1505.2,316.1,-0.8,1.8,2471.321,13.29,0.056,129.9
2023-03-08T05:37:03,42.805,6.029,0.011,-0.037,-0.044,109.0,107.0,104.0,13.3,1505.2,321.6,-0.8,1.8,2471.313,13.29,0.038,163.4
2023-03-08T05:40:03,42.805,6.029,0.017,-0.04,0.001,107.0,106.0,104.0,13.4,1505.2,333.0,-0.7,1.8,2471.377,13.29,0.043,157.0
2023-03-08T05:43:03,42.805,6.029,0.019,-0.043,-0.015,106.0,106.0,105.0,13.3,1505.2,326.0,-0.8,1.8,2471.364,13.29,0.047,156.2
2023-03-08T05:46:03,42.805,6.029,0.009,-0.036,-0.053,108.0,107.0,104.0,13.4,1505.2,324.4,-0.7,1.8,2471.317,13.29,0.037,166.0
2023-03-08T05:49:03,42.805,6.029,0.01,-0.039,-0.011,106.0,106.0,104.0,13.4,1505.2,328.3,-0.7,1.8,2471.363,13.29,0.04,165.6
2023-03-08T05:52:03,42.805,6.029,-0.001,-0.046,-0.027,107.0,105.0,104.0,13.4,1505.2,337.6,-0.8,1.8,2471.353,13.29,0.046,181.2
2023-03-08T05:55:03,42.805,6.029,0.03,-0.039,-0.006,106.0,106.0,104.0,13.4,1505.2,332.6,-0.8,1.8,2471.355,13.29,0.049,142.4
2023-03-08T05:58:03,42.805,6.029,0.023,-0.032,-0.009,107.0,107.0,104.0,13.4,1505.2,329.3,-0.8,1.8,2471.365,13.29,0.039,144.3
2023-03-08T06:04:03,42.805,6.029,0.034,-0.039,-0.033,108.0,106.0,105.0,13.4,1505.2,318.6,-0.8,1.8,2471.419,13.28,0.051,138.9
2023-03-08T06:07:03,42.805,6.029,0.011,-0.021,-0.004,107.0,107.0,104.0,13.4,1505.2,334.3,-0.8,1.8,2471.415,13.28,0.023,152.4
2023-03-08T06:10:03,42.805,6.029,0.018,-0.048,-0.001,107.0,107.0,105.0,13.4,1505.2,329.4,-0.8,1.8,2471.443,13.28,0.051,159.4
2023-03-08T06:13:03,42.805,6.029,0.009,-0.03,-0.006,107.0,105.0,105.0,13.3,1505.2,339.9,-0.7,1.8,2471.375,13.29,0.031,163.3
2023-03-08T06:16:03,42.805,6.029,0.05,-0.022,0.004,107.0,107.0,104.0,13.4,1505.2,322.9,-0.8,1.8,2471.394,13.29,0.054,113.7
2023-03-08T06:19:03,42.805,6.029,0.037,-0.051,-0.011,107.0,107.0,104.0,13.4,1505.2,320.3,-0.7,1.8,2471.447,13.29,0.063,144.0
2023-03-08T06:22:03,42.805,6.029,0.048,-0.03,0.005,107.0,105.0,105.0,13.3,1505.2,322.6,-0.8,1.8,2471.396,13.29,0.056,122.0
2023-03-08T06:25:03,42.805,6.029,0.032,-0.049,-0.012,106.0,106.0,106.0,13.3,1505.2,328.2,-0.7,1.8,2471.406,13.29,0.058,146.8
2023-03-08T06:28:03,42.805,6.029,0.025,-0.042,0.017,106.0,106.0,105.0,13.3,1505.2,325.0,-0.8,1.8,2471.405,13.29,0.048,149.2
2023-03-08T06:31:03,42.805,6.029,0.044,-0.02,-0.008,108.0,106.0,105.0,13.3,1505.2,326.0,-0.7,1.8,2471.391,13.29,0.048,114.4
2023-03-08T06:34:03,42.805,6.029,0.037,-0.036,-0.013,107.0,107.0,104.0,13.4,1505.2,322.2,-0.8,1.8,2471.424,13.29,0.051,134.2
2023-03-08T06:37:03,42.805,6.029,0.035,-0.054,-0.045,107.0,106.0,104.0,13.3,1505.2,336.8,-0.8,1.8,2471.371,13.29,0.064,147.0
2023-03-08T06:40:03,42.805,6.029,0.033,-0.061,0.008,110.0,106.0,105.0,13.4,1505.2,327.4,-0.7,1.9,2471.423,13.29,0.069,151.6
2023-03-08T06:43:03,42.805,6.029,0.025,-0.06,-0.028,107.0,106.0,105.0,13.4,1505.2,337.2,-0.8,1.8,2471.42,13.29,0.064,157.4
2023-03-08T06:46:03,42.805,6.029,0.013,-0.051,-0.043,107.0,105.0,105.0,13.3,1505.2,338.9,-0.8,1.8,2471.389,13.29,0.052,165.7
2023-03-08T06:49:03,42.805,6.029,0.039,-0.041,-0.018,107.0,107.0,104.0,13.4,1505.2,316.1,-0.8,1.8,2471.43,13.29,0.056,136.4
2023-03-08T06:52:03,42.805,6.029,0.026,-0.038,0.0,107.0,106.0,104.0,13.3,1505.2,315.0,-0.8,1.8,2471.405,13.29,0.046,145.6
2023-03-08T06:55:03,42.805,6.029,0.03,-0.065,-0.018,107.0,107.0,104.0,13.3,1505.2,331.4,-0.8,1.8,2471.442,13.29,0.071,155.2
2023-03-08T06:58:03,42.805,6.029,0.031,-0.048,0.002,108.0,106.0,105.0,13.4,1505.2,329.2,-0.7,1.9,2471.428,13.29,0.057,147.1
2023-03-08T07:04:03,42.805,6.029,0.028,-0.045,-0.005,106.0,106.0,105.0,13.4,1505.2,322.1,-0.8,1.8,2471.484,13.28,0.053,148.1
2023-03-08T07:07:03,42.805,6.029,0.023,-0.044,-0.029,107.0,106.0,105.0,13.3,1505.2,322.7,-0.8,1.8,2471.449,13.28,0.049,152.4
2023-03-08T07:10:03,42.805,6.029,0.024,-0.051,-0.018,108.0,107.0,104.0,13.4,1505.2,324.6,-0.8,1.8,2471.472,13.29,0.056,154.8
2023-03-08T07:13:03,42.805,6.029,0.026,-0.048,-0.014,107.0,106.0,105.0,13.4,1505.2,340.2,-0.7,1.8,2471.483,13.29,0.054,151.6
2023-03-08T07:16:03,42.805,6.029,0.033,-0.037,-0.016,106.0,107.0,104.0,13.4,1505.2,325.0,-0.8,1.8,2471.497,13.29,0.049,138.3
2023-03-08T07:19:03,42.805,6.029,0.031,-0.04,-0.008,107.0,107.0,104.0,13.4,1505.2,329.1,-0.7,1.8,2471.463,13.29,0.05,142.2
2023-03-08T07:22:03,42.805,6.029,0.034,-0.052,-0.03,107.0,107.0,104.0,13.3,1505.2,322.4,-0.8,1.8,2471.438,13.29,0.062,146.8
2023-03-08T07:25:03,42.805,6.029,0.03,-0.058,-0.012,108.0,106.0,104.0,13.4,1505.2,339.6,-0.8,1.8,2471.434,13.29,0.065,152.6
2023-03-08T07:28:03,42.805,6.029,0.024,-0.06,-0.033,106.0,106.0,104.0,13.4,1505.2,338.7,-0.8,1.8,2471.44,13.29,0.064,158.2
2023-03-08T07:31:03,42.805,6.029,0.05,-0.034,-0.006,106.0,106.0,103.0,13.4,1505.2,315.0,-0.8,1.8,2471.462,13.29,0.06,124.2
2023-03-08T07:34:03,42.805,6.029,0.05,-0.042,-0.008,107.0,107.0,104.0,13.4,1505.2,318.7,-0.7,1.8,2471.45,13.29,0.065,130.0
2023-03-08T07:37:03,42.805,6.029,0.029,-0.065,-0.029,107.0,106.0,105.0,13.3,1505.2,330.6,-0.8,1.8,2471.457,13.29,0.071,156.0
2023-03-08T07:40:03,42.805,6.029,0.033,-0.027,0.009,107.0,106.0,105.0,13.4,1505.2,322.1,-0.8,1.8,2471.457,13.29,0.042,129.3
2023-03-08T07:43:03,42.805,6.029,0.034,-0.058,0.003,107.0,106.0,104.0,13.3,1505.2,323.2,-0.8,1.8,2471.467,13.29,0.067,149.6
2023-03-08T07:46:03,42.805,6.029,0.032,-0.056,-0.026,107.0,105.0,104.0,13.4,1505.2,329.0,-0.8,1.8,2471.43,13.29,0.064,150.3
2023-03-08T07:49:03,42.805,6.029,0.03,-0.062,-0.005,108.0,106.0,105.0,13.4,1505.2,332.0,-0.8,1.9,2471.45,13.29,0.068,154.2
2023-03-08T07:52:03,42.805,6.029,0.02,-0.039,-0.002,107.0,106.0,105.0,13.3,1505.2,334.2,-0.7,1.8,2471.446,13.29,0.043,152.9
2023-03-08T07:55:03,42.805,6.029,0.03,-0.058,0.002,107.0,106.0,103.0,13.4,1505.2,332.2,-0.8,1.8,2471.444,13.29,0.065,152.6
2023-03-08T07:58:03,42.805,6.029,0.046,-0.062,-0.016,108.0,107.0,104.0,13.3,1505.2,328.8,-0.8,1.8,2471.462,13.29,0.077,143.4
2023-03-08T08:04:03,42.805,6.029,0.061,-0.031,0.002,108.0,105.0,105.0,13.3,1505.2,316.6,-0.8,1.8,2471.52,13.28,0.068,116.9
2023-03-08T08:07:03,42.805,6.029,0.041,-0.042,-0.039,108.0,108.0,105.0,13.3,1505.2,320.0,-0.8,1.8,2471.491,13.28,0.058,135.7
2023-03-08T08:10:03,42.805,6.029,0.051,-0.046,-0.023,108.0,107.0,104.0,13.4,1505.2,320.6,-0.8,1.8,2471.526,13.28,0.068,132.0
2023-03-08T08:13:03,42.805,6.029,0.049,-0.04,-0.031,109.0,106.0,104.0,13.4,1505.2,321.2,-0.7,1.8,2471.511,13.29,0.063,129.2
2023-03-08T08:16:03,42.805,6.029,0.018,-0.084,-0.04,106.0,106.0,104.0,13.4,1505.2,340.3,-0.7,1.8,2471.454,13.29,0.085,167.9
2023-03-08T08:19:03,42.805,6.029,0.043,-0.045,-0.01,108.0,107.0,104.0,13.4,1505.2,316.1,-0.8,1.8,2471.455,13.29,0.062,136.3
2023-03-08T08:22:03,42.805,6.029,0.044,-0.038,-0.003,107.0,106.0,104.0,13.4,1505.2,333.4,-0.8,1.8,2471.484,13.29,0.058,130.8
2023-03-08T08:25:03,42.805,6.029,0.04,-0.046,-0.016,107.0,106.0,104.0,13.4,1505.2,320.7,-0.8,1.8,2471.461,13.29,0.06,139.0
2023-03-08T08:28:03,42.805,6.029,0.024,-0.049,0.008,107.0,106.0,104.0,13.4,1505.2,323.3,-0.8,1.8,2471.451,13.29,0.054,153.9
2023-03-08T08:31:03,42.805,6.029,0.03,-0.054,-0.018,108.0,106.0,105.0,13.3,1505.2,338.2,-0.8,1.8,2471.452,13.29,0.061,150.9
2023-03-08T08:34:03,42.805,6.029,0.027,-0.05,-0.037,108.0,107.0,104.0,13.4,1505.2,331.2,-0.8,1.8,2471.468,13.29,0.056,151.6
2023-03-08T08:37:03,42.805,6.029,0.039,-0.053,-0.018,107.0,107.0,105.0,13.4,1505.2,336.2,-0.7,1.9,2471.434,13.29,0.065,143.7
2023-03-08T08:40:03,42.805,6.029,0.022,-0.052,-0.007,108.0,107.0,105.0,13.3,1505.2,325.0,-0.8,1.8,2471.459,13.29,0.056,157.1
2023-03-08T08:43:03,42.805,6.029,0.029,-0.069,0.0,107.0,107.0,105.0,13.4,1505.2,333.8,-0.8,1.8,2471.441,13.29,0.074,157.2
2023-03-08T08:46:03,42.805,6.029,0.021,-0.059,-0.031,107.0,107.0,105.0,13.4,1505.2,333.4,-0.8,1.8,2471.442,13.29,0.062,160.4
2023-03-08T08:49:03,42.805,6.029,0.01,-0.063,-0.001,107.0,107.0,105.0,13.3,1505.2,331.6,-0.8,1.8,2471.472,13.29,0.063,171.0
2023-03-08T08:52:03,42.805,6.029,0.022,-0.063,-0.001,108.0,107.0,104.0,13.4,1505.2,340.0,-0.8,1.8,2471.451,13.29,0.066,160.8
2023-03-08T08:55:03,42.805,6.029,0.014,-0.083,-0.051,108.0,107.0,105.0,13.4,1505.2,331.1,-0.8,1.8,2471.457,13.29,0.084,170.4
2023-03-08T08:58:03,42.805,6.029,0.009,-0.055,-0.023,108.0,108.0,105.0,13.4,1505.2,334.8,-0.7,1.8,2471.454,13.29,0.055,170.7
2023-03-08T09:04:03,42.805,6.029,0.03,-0.075,-0.015,107.0,107.0,105.0,13.3,1505.2,340.9,-0.7,1.8,2471.496,13.28,0.08,158.2
2023-03-08T09:07:03,42.805,6.029,0.015,-0.064,-0.002,107.0,106.0,105.0,13.3,1505.2,330.7,-0.8,1.8,2471.498,13.28,0.065,166.8
2023-03-08T09:10:03,42.805,6.029,0.023,-0.066,-0.03,107.0,106.0,105.0,13.3,1505.2,320.6,-0.8,1.8,2471.487,13.29,0.069,160.8
2023-03-08T09:13:03,42.805,6.029,-0.001,-0.047,-0.002,108.0,107.0,104.0,13.3,1505.2,333.8,-0.7,1.8,2471.478,13.29,0.047,181.2
2023-03-08T09:16:03,42.805,6.029,0.01,-0.047,-0.018,108.0,108.0,106.0,13.4,1505.2,320.1,-0.8,1.8,2471.493,13.29,0.048,168.0
2023-03-08T09:19:03,42.805,6.029,0.017,-0.041,-0.007,108.0,106.0,106.0,13.4,1505.2,323.9,-0.8,1.8,2471.486,13.29,0.044,157.5
2023-03-08T09:22:03,42.805,6.029,0.001,-0.053,-0.027,107.0,107.0,105.0,13.4,1505.2,340.0,-0.8,1.8,2471.455,13.29,0.053,178.9
2023-03-08T09:25:03,42.805,6.029,0.023,-0.049,0.003,108.0,107.0,105.0,13.4,1505.2,326.0,-0.7,1.8,2471.476,13.29,0.054,154.9
2023-03-08T09:28:03,42.805,6.029,0.013,-0.066,-0.025,108.0,107.0,106.0,13.4,1505.2,325.3,-0.7,1.8,2471.433,13.29,0.067,168.9
2023-03-08T09:31:03,42.805,6.029,0.003,-0.036,-0.026,108.0,106.0,104.0,13.4,1505.2,330.4,-0.8,1.8,2471.428,13.29,0.036,175.2
2023-03-08T09:34:03,42.805,6.029,0.007,-0.05,-0.011,107.0,107.0,105.0,13.4,1505.2,320.7,-0.7,1.8,2471.427,13.29,0.05,172.0
2023-03-08T09:37:03,42.805,6.029,0.027,-0.052,0.002,107.0,107.0,105.0,13.4,1505.2,328.2,-0.7,1.8,2471.464,13.29,0.058,152.6
2023-03-08T09:40:03,42.805,6.029,0.031,-0.058,-0.013,107.0,107.0,105.0,13.3,1505.2,323.4,-0.8,1.8,2471.4,13.29,0.065,151.9
2023-03-08T09:43:03,42.805,6.029,-0.008,-0.052,-0.019,109.0,106.0,105.0,13.4,1505.2,327.2,-0.8,1.8,2471.446,13.29,0.052,188.7
2023-03-08T09:46:03,42.805,6.029,0.02,-0.053,-0.027,107.0,107.0,104.0,13.4,1505.2,316.1,-0.8,1.9,2471.477,13.29,0.056,159.3
2023-03-08T09:49:03,42.805,6.029,0.029,-0.049,-0.035,108.0,107.0,106.0,13.3,1505.2,324.6,-0.8,1.8,2471.436,13.29,0.056,149.4
2023-03-08T09:52:03,42.805,6.029,0.015,-0.059,-0.042,108.0,107.0,106.0,13.4,1505.2,322.2,-0.7,1.8,2471.384,13.29,0.06,165.7
2023-03-08T09:55:03,42.805,6.029,0.004,-0.069,0.004,107.0,107.0,106.0,13.3,1505.2,333.4,-0.8,1.8,2471.423,13.29,0.069,176.7